| time (UTC) | temp F | wind direction | speed knots | gust knots | rain 1hr in | rain 24hr in | rain mn in | humidity % | barometer mb |
| 20260831155438 | 86 | 56 | 4.3 | 7.0 | 0.00 | 0.50 | 0.36 | 79 | 1017.6 |
| 20260831154407 | 86 | 5 | 3.5 | 7.0 | 0.00 | 0.50 | 0.36 | 80 | 1017.4 |
| 20260831153424 | 86 | 38 | 3.5 | 7.8 | 0.00 | 0.50 | 0.36 | 81 | 1017.5 |
| 20260831152422 | 86 | 47 | 3.5 | 7.8 | 0.00 | 0.50 | 0.36 | 80 | 1017.5 |
| 20260831151349 | 85 | 44 | 3.5 | 7.0 | 0.00 | 0.50 | 0.36 | 80 | 1017.5 |
| 20260831150355 | 85 | 33 | 3.5 | 7.0 | 0.00 | 0.50 | 0.36 | 81 | 1017.3 |
| 20260831145330 | 85 | 16 | 2.6 | 7.0 | 0.00 | 0.50 | 0.36 | 81 | 1017.1 |
| 20260831144257 | 85 | 26 | 3.5 | 7.0 | 0.00 | 0.50 | 0.36 | 81 | 1017.3 |
| 20260831143244 | 85 | 15 | 4.3 | 7.0 | 0.00 | 0.50 | 0.36 | 81 | 1017.3 |
| 20260831142237 | 85 | 5 | 3.5 | 7.0 | 0.00 | 0.50 | 0.36 | 81 | 1017.3 |
| 20260831141245 | 85 | 15 | 4.3 | 6.1 | 0.00 | 0.50 | 0.36 | 81 | 1017.2 |
| 20260831140236 | 85 | 57 | 2.6 | 5.2 | 0.00 | 0.50 | 0.36 | 81 | 1017.1 |
| 20260831135206 | 85 | 321 | 1.7 | 7.0 | 0.00 | 0.50 | 0.36 | 82 | 1017.1 |
| 20260831134221 | 84 | 349 | 3.5 | 7.0 | 0.00 | 0.50 | 0.36 | 83 | 1017.0 |
| 20260831133146 | 84 | 5 | 3.5 | 6.1 | 0.00 | 0.50 | 0.36 | 82 | 1016.9 |
| 20260831132205 | 84 | 355 | 2.6 | 6.1 | 0.00 | 0.50 | 0.36 | 84 | 1016.8 |
| 20260831131144 | 83 | 15 | 1.7 | 5.2 | 0.00 | 0.50 | 0.36 | 85 | 1016.6 |
| 20260831130158 | 83 | 355 | 2.6 | 5.2 | 0.00 | 0.50 | 0.36 | 85 | 1016.6 |
| 20260831125145 | 83 | 355 | 2.6 | 5.2 | 0.00 | 0.50 | 0.36 | 85 | 1016.5 |
| 20260831124143 | 83 | 13 | 0.9 | 3.5 | 0.00 | 0.50 | 0.36 | 86 | 1016.3 |
| 20260831123143 | 82 | 0 | 1.7 | 3.5 | 0.00 | 0.50 | 0.36 | 87 | 1016.5 |
| 20260831122107 | 81 | 342 | 1.7 | 2.6 | 0.00 | 0.50 | 0.36 | 87 | 1016.5 |
| 20260831121029 | 81 | 355 | 0.9 | 2.6 | 0.00 | 0.49 | 0.35 | 87 | 1016.4 |
| 20260831115959 | 81 | 9 | 0.9 | 2.6 | 0.00 | 0.49 | 0.35 | 87 | 1016.2 |
| 20260831113847 | 80 | 9 | 0.9 | 1.7 | 0.00 | 0.49 | 0.35 | 87 | 1016.1 |
| 20260831112841 | 80 | 21 | 0.9 | 2.6 | 0.00 | 0.49 | 0.35 | 87 | 1016.0 |
| 20260831111816 | 80 | 13 | 0.9 | 2.6 | 0.00 | 0.49 | 0.35 | 87 | 1015.8 |
| 20260831110834 | 80 | 16 | 0.9 | 1.7 | 0.00 | 0.49 | 0.35 | 86 | 1015.6 |
| 20260831105816 | 80 | 16 | 0.9 | 1.7 | 0.00 | 0.49 | 0.35 | 86 | 1015.5 |
| 20260831103714 | 80 | 0 | 0.0 | 1.7 | 0.00 | 0.49 | 0.35 | 85 | 1015.3 |
| 20260831102706 | 81 | 329 | 0.9 | 1.7 | 0.00 | 0.49 | 0.35 | 85 | 1015.2 |
| 20260831101713 | 80 | 5 | 0.0 | 0.9 | 0.00 | 0.49 | 0.35 | 84 | 1015.2 |
| 20260831100702 | 80 | 128 | 0.0 | 0.0 | 0.00 | 0.49 | 0.35 | 83 | 1015.3 |
| 20260831095638 | 80 | 128 | 0.0 | 2.6 | 0.00 | 0.49 | 0.35 | 83 | 1015.1 |
| 20260831094658 | 80 | 143 | 0.9 | 2.6 | 0.00 | 0.49 | 0.35 | 83 | 1015.0 |
| 20260831093632 | 80 | 131 | 0.0 | 2.6 | 0.00 | 0.49 | 0.35 | 84 | 1015.0 |
| 20260831092603 | 80 | 147 | 0.9 | 2.6 | 0.00 | 0.49 | 0.35 | 84 | 1015.0 |
| 20260831090447 | 80 | 113 | 0.9 | 3.5 | 0.00 | 0.49 | 0.35 | 86 | 1015.1 |
| 20260831085422 | 80 | 124 | 0.9 | 1.7 | 0.00 | 0.49 | 0.35 | 86 | 1015.1 |
| 20260831084359 | 80 | 109 | 0.9 | 1.7 | 0.00 | 0.49 | 0.35 | 86 | 1015.1 |
| 20260831083334 | 80 | 121 | 0.0 | 1.7 | 0.00 | 0.49 | 0.35 | 86 | 1015.2 |
| 20260831082331 | 79 | 68 | 0.0 | 0.0 | 0.00 | 0.49 | 0.35 | 86 | 1015.2 |
| 20260831080203 | 78 | 68 | 0.0 | 0.9 | 0.00 | 0.49 | 0.35 | 86 | 1015.3 |
| 20260831075202 | 78 | 68 | 0.0 | 0.9 | 0.00 | 0.49 | 0.35 | 86 | 1015.2 |
| 20260831074210 | 78 | 68 | 0.0 | 0.9 | 0.00 | 0.49 | 0.35 | 86 | 1015.1 |
| 20260831073137 | 78 | 68 | 0.0 | 0.0 | 0.00 | 0.49 | 0.35 | 86 | 1015.2 |
| 20260831072155 | 78 | 63 | 0.9 | 2.6 | 0.00 | 0.49 | 0.35 | 86 | 1015.4 |
| 20260831071121 | 78 | 36 | 1.7 | 7.0 | 0.04 | 0.49 | 0.35 | 86 | 1015.4 |
| 20260831064951 | 79 | 69 | 0.9 | 7.0 | 0.31 | 0.45 | 0.31 | 87 | 1015.9 |
| 20260831063933 | 79 | 121 | 3.5 | 12.2 | 0.11 | 0.41 | 0.26 | 86 | 1015.9 |
| 20260831062918 | 81 | 119 | 6.1 | 12.2 | 0.11 | 0.36 | 0.23 | 86 | 1015.9 |
| 20260831061844 | 81 | 140 | 7.0 | 11.3 | 0.00 | 0.19 | 0.05 | 83 | 1016.1 |
| 20260831060816 | 81 | 119 | 2.6 | 5.2 | 0.00 | 0.19 | 0.05 | 84 | 1016.0 |
| 20260831055823 | 81 | 162 | 1.7 | 8.7 | 0.04 | 0.19 | 0.05 | 85 | 1015.9 |
| 20260831054800 | 82 | 142 | 1.7 | 8.7 | 0.16 | 0.19 | 0.05 | 85 | 1016.0 |
| 20260831051517 | 81 | 67 | 0.0 | 0.0 | 0.00 | 0.14 | 0.00 | 84 | 1016.3 |
| 20260831050441 | 82 | 67 | 0.0 | 0.0 | 0.00 | 0.14 | 0.00 | 84 | 1016.3 |
| 20260831045457 | 82 | 27 | 0.0 | 1.7 | 0.00 | 0.14 | 0.00 | 84 | 1016.5 |
| 20260831044425 | 82 | 53 | 0.0 | 0.0 | 0.00 | 0.14 | 0.00 | 84 | 1016.6 |
| 20260831043443 | 82 | 53 | 0.0 | 0.0 | 0.00 | 0.14 | 0.00 | 84 | 1016.5 |
| 20260831040212 | 82 | 53 | 0.0 | 0.0 | 0.00 | 0.14 | 0.00 | 84 | 1016.8 |
| 20260831034041 | 82 | 53 | 0.0 | 0.0 | 0.00 | 0.14 | 0.14 | 83 | 1016.9 |
| 20260831033015 | 82 | 53 | 0.0 | 0.0 | 0.00 | 0.14 | 0.14 | 83 | 1016.9 |
| 20260831032024 | 82 | 53 | 0.0 | 0.0 | 0.00 | 0.14 | 0.14 | 83 | 1016.8 |
| 20260831030955 | 82 | 42 | 0.0 | 0.0 | 0.00 | 0.14 | 0.14 | 83 | 1016.9 |
| 20260831025946 | 82 | 73 | 0.9 | 1.7 | 0.00 | 0.14 | 0.14 | 82 | 1016.9 |
| 20260831023748 | 82 | 57 | 0.0 | 0.0 | 0.00 | 0.14 | 0.14 | 82 | 1016.7 |
| 20260831022808 | 82 | 71 | 0.0 | 0.0 | 0.00 | 0.14 | 0.14 | 82 | 1016.8 |
| 20260831021826 | 82 | 76 | 0.0 | 0.0 | 0.00 | 0.14 | 0.14 | 82 | 1016.7 |
| 20260831020800 | 82 | 67 | 0.9 | 2.6 | 0.00 | 0.14 | 0.14 | 82 | 1016.7 |
| 20260831015725 | 82 | 69 | 0.9 | 3.5 | 0.00 | 0.14 | 0.14 | 81 | 1016.9 |
| 20260831014712 | 82 | 75 | 1.7 | 4.3 | 0.00 | 0.14 | 0.14 | 81 | 1016.8 |
| 20260831013636 | 82 | 63 | 1.7 | 6.1 | 0.00 | 0.14 | 0.14 | 81 | 1016.8 |
| 20260831012650 | 82 | 71 | 1.7 | 6.1 | 0.00 | 0.14 | 0.14 | 80 | 1016.9 |
| 20260831011618 | 82 | 21 | 1.7 | 6.1 | 0.00 | 0.14 | 0.14 | 81 | 1016.9 |
| 20260831010638 | 82 | 40 | 1.7 | 6.1 | 0.00 | 0.14 | 0.14 | 81 | 1017.0 |
| 20260831005640 | 82 | 61 | 1.7 | 4.3 | 0.00 | 0.14 | 0.14 | 81 | 1016.9 |
| 20260831003511 | 82 | 49 | 1.7 | 5.2 | 0.00 | 0.14 | 0.14 | 82 | 1016.8 |
| 20260831002520 | 82 | 48 | 1.7 | 5.2 | 0.00 | 0.14 | 0.14 | 82 | 1016.7 |
| 20260831001504 | 82 | 40 | 1.7 | 3.5 | 0.00 | 0.14 | 0.14 | 81 | 1016.6 |
| 20260831000442 | 82 | 24 | 1.7 | 3.5 | 0.00 | 0.14 | 0.14 | 80 | 1016.6 |
| 20260830235443 | 82 | 35 | 0.9 | 3.5 | 0.00 | 0.14 | 0.14 | 80 | 1016.6 |
| 20260830234440 | 83 | 16 | 0.9 | 3.5 | 0.00 | 0.14 | 0.14 | 79 | 1016.5 |
| 20260830233429 | 83 | 35 | 1.7 | 3.5 | 0.00 | 0.14 | 0.14 | 78 | 1016.5 |
| 20260830232411 | 83 | 56 | 1.7 | 3.5 | 0.00 | 0.14 | 0.14 | 77 | 1016.3 |
| 20260830225132 | 84 | 54 | 0.9 | 2.6 | 0.00 | 0.14 | 0.14 | 77 | 1015.9 |
| 20260830224134 | 83 | 115 | 1.7 | 5.2 | 0.00 | 0.16 | 0.14 | 77 | 1015.9 |
| 20260830223101 | 83 | 81 | 1.7 | 5.2 | 0.00 | 0.16 | 0.14 | 77 | 1015.9 |
| 20260830222054 | 83 | 104 | 1.7 | 5.2 | 0.00 | 0.16 | 0.14 | 77 | 1015.9 |
| 20260830215907 | 84 | 98 | 0.0 | 2.6 | 0.00 | 0.16 | 0.14 | 74 | 1015.7 |
| 20260830213740 | 84 | 78 | 0.9 | 2.6 | 0.00 | 0.16 | 0.14 | 76 | 1015.7 |
| 20260830210444 | 83 | 36 | 1.7 | 5.2 | 0.00 | 0.16 | 0.14 | 77 | 1015.7 |
| 20260830205454 | 83 | 65 | 2.6 | 5.2 | 0.00 | 0.16 | 0.14 | 77 | 1015.8 |
| 20260830204434 | 83 | 34 | 1.7 | 4.3 | 0.00 | 0.16 | 0.14 | 76 | 1015.8 |
| 20260830201147 | 83 | 58 | 0.9 | 4.3 | 0.00 | 0.35 | 0.14 | 78 | 1016.3 |
| 20260830200110 | 83 | 49 | 0.9 | 4.3 | 0.00 | 0.35 | 0.14 | 79 | 1016.4 |
| 20260830195128 | 82 | 246 | 0.0 | 1.7 | 0.00 | 0.35 | 0.14 | 79 | 1016.4 |
| 20260830194057 | 82 | 192 | 0.0 | 0.0 | 0.00 | 0.35 | 0.14 | 80 | 1016.5 |
| 20260830193109 | 81 | 260 | 0.0 | 0.9 | 0.00 | 0.35 | 0.14 | 80 | 1016.5 |
| 20260830192131 | 81 | 260 | 0.9 | 1.7 | 0.00 | 0.35 | 0.14 | 80 | 1016.6 |
| 20260830191120 | 80 | 265 | 0.0 | 0.9 | 0.00 | 0.35 | 0.14 | 82 | 1016.3 |
| 20260830190134 | 80 | 329 | 0.0 | 0.0 | 0.00 | 0.35 | 0.14 | 84 | 1016.4 |
| 20260830184004 | 78 | 152 | 0.0 | 0.9 | 0.00 | 0.35 | 0.14 | 86 | 1016.6 |
| 20260830183005 | 78 | 49 | 0.9 | 4.3 | 0.06 | 0.35 | 0.14 | 87 | 1016.8 |
| 20260830180850 | 78 | 103 | 1.7 | 6.1 | 0.10 | 0.33 | 0.13 | 87 | 1017.4 |
| 20260830175851 | 77 | 102 | 2.6 | 8.7 | 0.09 | 0.32 | 0.11 | 87 | 1017.7 |
| 20260830174835 | 78 | 137 | 3.5 | 10.4 | 0.13 | 0.31 | 0.10 | 88 | 1017.9 |
| 20260830173840 | 78 | 128 | 5.2 | 10.4 | 0.16 | 0.29 | 0.08 | 87 | 1018.0 |
| 20260830172857 | 78 | 127 | 6.1 | 10.4 | 0.06 | 0.27 | 0.06 | 88 | 1018.2 |
| 20260830171904 | 78 | 144 | 3.5 | 7.0 | 0.12 | 0.26 | 0.05 | 88 | 1018.2 |
| 20260830170836 | 78 | 164 | 4.3 | 7.8 | 0.04 | 0.24 | 0.03 | 87 | 1018.4 |
| 20260830165840 | 78 | 142 | 5.2 | 9.6 | 0.07 | 0.23 | 0.02 | 87 | 1018.6 |
| 20260830164815 | 78 | 152 | 7.8 | 13.0 | 0.00 | 0.22 | 0.01 | 86 | 1018.5 |
| 20260830163800 | 78 | 152 | 7.8 | 13.0 | 0.00 | 0.21 | 0.00 | 85 | 1018.8 |
| 20260830162820 | 78 | 113 | 7.8 | 16.5 | 0.00 | 0.21 | 0.00 | 84 | 1019.1 |
| 20260830161840 | 80 | 165 | 9.6 | 20.0 | 0.00 | 0.21 | 0.00 | 83 | 1019.1 |